Location: Arborea
(39.7744°N, 8.5819°E)
Time: 06:30:30
(UTC+00:00)

Cosmos 2322 - Pass Details

Date: 07 June 2022
Orbit: 840 x 855 km, 71.0° (Epoch: 03 July)

Event Time Altitude Azimuth Distance (km) Brightness Sun altitude
Rises 21:21:15 0° 230° (SW) 3,411 6.8 -21.1°
Reaches altitude 10° 21:23:58 10° 240° (WSW) 2,480 6.1 -21.4°
Maximum altitude 21:29:00 31° 302° (WNW) 1,446 5.4 -21.8°
Drops below altitude 10° 21:34:04 10° 5° (N) 2,493 6.9 -22.3°
Sets 21:36:49 0° 15° (NNE) 3,432 7.6 -22.5°
